SL-16 DEB, 39848

Orbit data source: Space-Track

SL-16 DEB, 39848 is space debris in LEO originally from a launch on Fri, 25 Dec 1992 UTC launched from the Tyuratam Missile And Space Complex (TTMTR). Debris objects in space refer to the collection of defunct objects orbiting the Earth. Examples of debris include non-operational satellites, rocket bodies, and fragments generated from explosions, collisions, or faulty payload assembly.

Loading next visibility...
Identifier
39848, 1992-093LA
Orbit
LEO
Country
Flag of CISCIS
Related business
Manufacturer
Unknown
Mission
Spacecraft
Bus & Motor
Unknown
Mass
Unknown
Launch date (UTC)
1992-12-25 (33 years ago)
Launch vehicle
Unknown
Launch site
Tyuratam Missile And Space Complex (TTMTR)
Object type
Payload
Rocket body
Debris
Shape & HBR
Unknown shape, 0.1 m
Radar Cross Section
Small (<0.1 m²)

Expand to show TLE details & history
Last TLE update: 1 day ago

TLE from 1 day ago
0 SL-16 DEB
1 39848U 92093LA  26036.71854757  .00090805  00000-0  85796-2 0  9995
2 39848  71.2159  34.3449 0022188  46.2506 314.0491 14.92999185605415
Epoch: 2026-02-05T17:14Z
TLE epoch observation values (Epoch: 2026-02-05T17:14:42.510Z)
Latitude
0.00003°
Longitude
-0.19896°
Altitude
580.361 km
Speed
7.576 km/s
True Right ascension
02h 17m 22s
True Declination
0° 00' 00"
Sunlit
Object was in daylight at epoch
Visualization orbit readout
Latitude
Unknown
Longitude
Unknown
Altitude
Unknown
Speed
Unknown
Apparent Right ascension
Unknown
Apparent Declination
Unknown
Sunlit
N/A
Visualization observer readout
Local Sidereal Time
20:38:47
Azimuth
Unknown
Elevation
Unknown
Doppler factor
Unknown
Orbital elements
Apogee altitude
601.87 km
Perigee altitude
570.964 km
Semi-major axis
6,964.554 km
Eccentricity
0.00222
Inclination
71.2159°
RAAN
34.3449°
Arg. of periapsis
46.2506°
True anomaly
313.866°
Mean anomaly
314.0491°
Eccentric anomaly
313.95759°
Mean motion
3.73425 °/min
Orbital period
96.4 mins
BSTAR
0.0085796
Loading maneuver chart data...
Computing Atmospheric mass density...

Documentation

Showing up to 5 results
|